Hourly Data Report for September 28, 2017

All times are specified in Local Standard Time (LST). Add 1 hour to adjust for Daylight Saving Time where and when it is observed.

BATHURST A
NEW BRUNSWICK

47°37'47.000" N
65°44'20.000" W
58.80 m
8100505
71574
ZBF

Download Data

Hourly Data (September 2017)
Hourly Data Report for September 28, 2017
Temp Definition
°C
Dew Point Temp Definition
°C
Rel Hum Definition
%
Wind Dir Definition
10's deg

Wind Spd Definition
km/h
Visibility Definition
km
Stn Press Definition
kPa
Hmdx Definition


Wind Chill Definition


Weather Definition


TIME
00:00 Legend Double Dagger 13.8 13.7 99 16 8 16.1 99.47     Rain
01:00 Legend Double Dagger 15.2 14.9 98 21 12 19.3 99.33     LegendNANA
02:00 Legend Double Dagger 16.2 15.4 95 23 14 16.1 99.39     Rain
03:00 Legend Double Dagger 16.4 15.8 96 20 13 16.1 99.36     LegendNANA
04:00 Legend Double Dagger 16.4 15.7 96 22 7 16.1 99.34     LegendNANA
05:00 Legend Double Dagger 15.8 15.2 96 25 10 16.1 99.41     Cloudy
06:00 Legend Double Dagger 15.2 11.3 77 27 19 24.1 99.42     LegendNANA
07:00 Legend Double Dagger 14.3 10.0 75 28 19 24.1 99.40     LegendNANA
08:00 Legend Double Dagger 13.5 9.1 74 29 14 24.1 99.41     Mostly Cloudy
09:00 Legend Double Dagger 13.8 9.1 73 28 15 24.1 99.40     LegendNANA
10:00 Legend Double Dagger 14.1 8.9 71 27 9 24.1 99.38     LegendNANA
11:00 Legend Double Dagger 16.5 8.1 57 30 17 24.1 99.41     Mainly Clear
12:00 Legend Double Dagger 16.8 7.5 54 32 20 24.1 99.47     LegendNANA
13:00 Legend Double Dagger 15.9 7.4 57 32 11 24.1 99.53     LegendNANA
14:00 Legend Double Dagger 15.5 7.0 57 28 15 24.1 99.54     Mostly Cloudy
15:00 Legend Double Dagger 14.6 6.4 57 29 11 24.1 99.58     LegendNANA
16:00 Legend Double Dagger 13.8 6.0 59 29 13 24.1 99.66     LegendNANA
17:00 Legend Double Dagger 13.0 5.6 61 27 13 24.1 99.70     Mostly Cloudy
18:00 Legend Double Dagger 12.2 5.2 62 30 9 24.1 99.71     LegendNANA
19:00 Legend Double Dagger 10.2 5.0 70 27 13 24.1 99.73     LegendNANA
20:00 Legend Double Dagger 10.8 4.8 66 30 17 24.1 99.77     Mainly Clear
21:00 Legend Double Dagger 9.5 5.7 77 28 13 24.1 99.78     LegendNANA
22:00 Legend Double Dagger 8.9 4.9 76 27 15 24.1 99.77     LegendNANA
23:00 Legend Double Dagger 8.5 4.5 76 27 17 24.1 99.78     Clear

Notes on Data Quality.

Legend

  • E = Estimated
  • M = Missing
  • NA = Not Available
  • ‡ = Partner data that is not subject to review by the National Climate Archives
Date modified: